This is the latest recevied weather packets stored in our database for station/object DK8RG-15. If no packets are shown the sender has not sent any weather packets the latest 10 day(s).
| Time | Temp. | Humidity | Pressure | Rain* | Wind** | Luminosity | Snow |
|---|---|---|---|---|---|---|---|
| 1778004016 | 16.11° C | 71% | 1002.6 hPa | 0 mm | - | - | - |
| 1778003417 | 16.67° C | 70% | 1002.6 hPa | 0 mm | - | - | - |
| 1778002816 | 17.22° C | 69% | 1002.6 hPa | 0 mm | - | - | - |
| 1778002217 | 17.22° C | 68% | 1002.6 hPa | 0 mm | - | - | - |
| 1778001616 | 17.22° C | 68% | 1002.6 hPa | 0 mm | - | - | - |
| 1778001016 | 17.22° C | 67% | 1002.6 hPa | 0 mm | - | - | - |
| 1778000416 | 17.22° C | 67% | 1002.6 hPa | 0 mm | - | - | - |
| 1777999817 | 17.78° C | 68% | 1003.7 hPa | 0 mm | - | - | - |
| 1777999216 | 17.78° C | 67% | 1003.7 hPa | 0 mm | - | - | - |
| 1777998617 | 17.78° C | 66% | 1003.7 hPa | 0 mm | - | - | - |
| 1777998016 | 17.78° C | 66% | 1003.7 hPa | 0 mm | - | - | - |
| 1777997416 | 17.78° C | 66% | 1003.7 hPa | 0 mm | - | - | - |
| 1777996816 | 18.33° C | 66% | 1003.7 hPa | 0 mm | - | - | - |
| 1777996216 | 18.89° C | 65% | 1003.8 hPa | 0 mm | - | - | - |
| 1777995616 | 18.89° C | 65% | 1003.8 hPa | 0 mm | - | - | - |
| 1777995017 | 18.33° C | 67% | 1003.8 hPa | 0 mm | - | - | - |
| 1777994416 | 17.78° C | 67% | 1003.7 hPa | 0 mm | - | - | - |
| 1777993817 | 18.33° C | 66% | 1003.8 hPa | 0 mm | - | - | - |
| 1777993216 | 18.89° C | 65% | 1003.8 hPa | 0 mm | - | - | - |
| 1777992616 | 18.89° C | 65% | 1003.8 hPa | 0 mm | - | - | - |
| 1777992016 | 18.89° C | 65% | 1004.8 hPa | 0 mm | - | - | - |
| 1777991416 | 18.89° C | 64% | 1004.8 hPa | 0 mm | - | - | - |
| 1777990816 | 19.44° C | 63% | 1004.9 hPa | 0 mm | - | - | - |
| 1777989616 | 19.44° C | 63% | 1004.9 hPa | 0 mm | - | - | - |
| 1777989017 | 19.44° C | 63% | 1005 hPa | 0 mm | - | - | - |
* Rain latest hour (hover to see other rain measurements)
** Current wind speed in m/s (hover to see current wind gust speed)